Other Public Products
Issued by NWS Grand Forks, ND

Home | Current Version | Previous Version | Text Only | Print | Product List | Glossary Off
Versions: 1 2 3 4 5 6 7 8 9 10 11 12 13 14 15 16 17 18 19 20 21 22 23 24 25 26 27 28 29 30 31 32 33 34 35 36 37 38 39 40 41 42 43 44 45 46 47 48 49 50

000
FPUS83 KFGF 040710
OPUFGF
PRAIRIE TO PINES WEATHER ROUNDUP
NATIONAL WEATHER SERVICE EASTERN NORTH DAKOTA/GRAND FORKS ND
200 AM CDT FRI SEP 04 2015

 **SATELLITE DATA USED TO AUGMENT SKY COVER AT AUTOMATED STATIONS**
 *****  WEATHER ACROSS EASTERN NORTH DAKOTA  *****

CITY           SKY/WX    TMP DP  RH WIND       PRES   REMARKS
GRAND FORKS    MOCLDY    76  72  87 S10       29.77R
GRAND FORKS AF MOCLDY    76  73  91 S9        29.78R
GRAND CITY NWS   N/A     75 N/A N/A S9          N/A
BUXTON         NOT AVBL
DEVILS LAKE    MOCLDY    75  68  78 SE10      29.73S
FARGO          MOCLDY    78  72  81 SE13      29.78S
WAHPETON ARPT  PTSUNNY   73  70  88 SE12      29.80S
$$

 *****  WEATHER ACROSS CENTRAL AND WESTERN NORTH DAKOTA  *****

CITY           SKY/WX    TMP DP  RH WIND       PRES   REMARKS
JAMESTOWN      CLEAR     74  72  93 SE10      29.75F
BISMARCK       PTCLDY    77  70  79 S12       29.71R
MINOT          PTCLDY    66  60  81 W7        29.73R
MINOT AFB      PTCLDY    68  66  93 CALM      29.72R
GARRISON         N/A     71  67  87 NE5       29.73R
WILLISTON      MOCLDY    69  43  38 N20G29    29.82R
DICKINSON      MOCLDY    68  64  87 NE8       29.71S
HETTINGER      CLOUDY    71  55  56 E10       29.72F
$$

 *****  OTHER OBSERVATIONS NORTHEAST NORTH DAKOTA  *****

CITY           SKY/WX    TMP DP  RH WIND       PRES   REMARKS
WALHALLA       FAIR      77  77 100 MISG      29.73S
LANGDON        FAIR      77  73  88 S18G24    29.76S
CAVALIER       FAIR      77  73  88 S12G17    29.75R
GRAFTON        FAIR      77  75  94 SE12      29.78R
CANDO          NOT AVBL
FORT TOTTEN      N/A     76  72  87 S13       29.95S
ROLLA          FAIR      72  63  73 S8        29.75R
RUGBY          FAIR      75  66  73 S10G16    29.71R
 ***** THE ABOVE OBSERVATIONS ARE NON NWS ARE NOT QUALITY
        CONTROLLED AND MAY MIS-REPORT RAIN FOR SNOW...
$$

 *****  OTHER OBSERVATIONS SOUTHEAST NORTH DAKOTA *****

CITY           SKY/WX    TMP DP  RH WIND       PRES   REMARKS
COOPERSTOWN    NOT AVBL
VALLEY CITY    FAIR      73  73 100 SE8       29.78F
OAKES            N/A     73  73 100 E7        29.76S
GWINNER          N/A     75  75 100 SE12      29.77F
BUFFALO        NOT AVBL
WYNDMERE         N/A     75  73  94 SE7         N/A
 ***** THE ABOVE OBSERVATIONS ARE NON NWS ARE NOT QUALITY
       CONTROLLED AND MAY MIS-REPORT RAIN FOR SNOW...
$$

  *****  WEATHER ACROSS NORTHERN MINNESOTA  *****

CITY           SKY/WX    TMP DP  RH WIND       PRES   REMARKS
FLAG ISLAND    MOCLDY    70  64  83 S23       29.84F
WARROAD        CLOUDY    72  68  88 S9        29.85S
ROSEAU         CLOUDY    70  64  83 SE9       29.84R
HALLOCK        CLOUDY    77  72  83 S12       29.78R
THF RVR FALLS  CLOUDY    73  70  88 SE12      29.83S
HALSTAD        NOT AVBL
FOSSTON        CLOUDY    72  64  78 SE9       29.85S
BAUDETTE       MOCLDY    67  62  84 SE14      29.89R
WASKISH        MOCLDY    68  64  88 SE7       29.90S
CROOKSTON      CLOUDY    75  72  88 SE12      29.80S
$$
  *****  WEATHER ACROSS CENTRAL AND WEST MINNESOTA  *****

CITY           SKY/WX    TMP DP  RH WIND       PRES   REMARKS
BEMIDJI        MOCLDY    67  65  92 SE12      29.90S
PARK RAPIDS    CLOUDY    73  67  81 SE9       29.89F
WADENA         PTCLDY    72  66  83 E8        29.88S
DETROIT LAKES  CLOUDY    73  70  88 SE14      29.86F
MOORHEAD       MOCLDY    75  72  88 SE8       29.80S
FERGUS FALLS   MOCLDY    75  72  88 SE12      29.81S
ELBOW LAKE     FAIR      74  72  95 SE9       29.83S
MORRIS MN      MOCLDY    75  73  94 SE10      29.82S FOG
STAPLES        PTCLDY    72  64  78 CALM      29.89S
WHEATON        MOCLDY    72  72 100 E10       29.81S FOG
$$
  *****  WEATHER ELSEWHERE ACROSS MINNESOTA  *****

CITY           SKY/WX    TMP DP  RH WIND       PRES   REMARKS
DULUTH         CLEAR     56  53  90 E9        29.99S
INTRNTL FALLS  CLEAR     58  53  84 SE6       29.95R
ELY            CLEAR     52  48  87 CALM      30.01S
CLOQUET        CLEAR     55  52  88 E3        29.99R
BRAINERD       PTCLDY    68  65  90 VRB5      29.92S
HIBBING        CLEAR     55  51  86 CALM      29.99R
ALEXANDRIA     MOCLDY    73  71  93 SE15      29.88S
SAINT CLOUD    CLEAR     71  68  90 E7        29.89S
MINNEAPOLIS    CLEAR     73  68  84 SE14      29.90F
$$

  *****  WEATHER ACROSS SOUTH DAKOTA  *****

CITY           SKY/WX    TMP DP  RH WIND       PRES   REMARKS
SIOUX FALLS    PTCLDY    76  70  82 S10       29.81S
BROOKINGS      MOCLDY    75  70  83 SE13      29.82S
WATERTOWN      PTCLDY    75  71  87 SE8       29.79F
HURON          CLOUDY    76  71  85 SE12      29.71F
SISSETON         N/A     73  72  96 S3        29.78S
ABERDEEN       PTCLDY    73  70  90 E8        29.73F
MITCHELL       MOCLDY    76  71  85 SE9       29.74S
PIERRE         MOCLDY    75  70  84 SE6       29.68S
MOBRIDGE       MOCLDY    74  72  93 SE6       29.69F
RAPID CITY     CLOUDY    73  52  47 VRB3      29.76F
$$

  *****  SOME WEATHER IN NEARBY STATES *****

CITY           SKY/WX    TMP DP  RH WIND       PRES   REMARKS
GLASGOW MT     MOCLDY    62  38  40 NE28G38   29.83S
GREAT FALLS MT RAIN      49  48  97 SE7       30.00S
CHEYENNE WY    CLEAR     56  44  64 W6        30.02S
SCOTTSBLUFF NE PTCLDY    63  59  87 SE3       29.86F
OMAHA NE       MOCLDY    77  68  73 S12       29.87R
DES MOINES IA  PTCLDY    76  68  76 S8        29.93R
DAVENPORT IA   PTCLDY    73  70  90 S5        29.95R
CHICAGO IL     PTCLDY    70  67  90 NE3       29.96F
EAU CLAIRE WI  CLOUDY    70  64  81 E7        29.97R
LA CROSSE WI   CLEAR     72  66  81 SE8       29.95S
$$

  *****  SOME NATIONAL WEATHER *****

CITY           SKY/WX    TMP DP  RH WIND       PRES   REMARKS
LA GUARDIA NY  MOCLDY    79  66  64 NE7       29.90S
RALEIGH NC     PTCLDY    70  68  93 CALM      29.93R
ATLANTA GA     PTCLDY    71  67  87 CALM      29.97S
NEW ORLEANS LA PTCLDY    78  73  84 CALM      29.93F
OKLAHOMA CITY  MOCLDY    72  64  76 SE9       29.91F
ALBUQUERQUE NM MOCLDY    72  49  44 SE6       30.09F
SALT LAKE CITY PTCLDY    76  36  23 S15       29.79R
LOS ANGELES CA MOCLDY    68  57  68 VRB3      29.87S
BOISE ID       PTCLDY    57  43  59 W6        29.86R
SEATTLE WA     PTCLDY    54  48  80 N6        30.00F
$$

*** WEATHER ACROSS MANITOBA...SASKATCHEWAN AND ONTARIO ***
                ***ONTARIO***

CITY           SKY/WX    TMP DP  RH WIND       PRES   REMARKS
GERALDTON      CLEAR     54  54 100 NW6       30.07R
THUNDER BAY    CLEAR     54  54 100 SW3       30.05R
SIOUX LOOKOUT  PTCLDY    64  55  72 S6        29.97S
TORONTO        MOCLDY    73  68  83 E6        30.00S
BIG TROUT LK   MOCLDY    70  57  64 SW12G17   29.85R
PICKLE LAKE    NOT AVBL
DRYDEN         PTCLDY    66  54  63 S10       29.95R
KENORA         MOCLDY    70  61  73 S12G17    29.90R
$$
                *** MANITOBA***

CITY           SKY/WX    TMP DP  RH WIND       PRES   REMARKS
BRANDON        CLOUDY    72  70  94 NE22      29.75R
DAUPHIN        MOCLDY    64  57  77 NW5       29.81R
ISLAND LAKE    TSTM      66  66 100 NW7       29.81R
PILOT MOUND      N/A     77  68  73 S15         N/A
THE PAS        CLEAR     59  48  67 NW14      29.89R
THOMPSON       PTCLDY    59  50  72 NW6       29.82R
WINNIPEG       MOCLDY    79  73  83 S18       29.74R THUNDER
LYNN LAKE      CLEAR     46  43  87 SW6       29.83S
CHURCHILL      CLOUDY    50  48  93 SE14      29.75S
$$
                ***SASKATCHEWAN***

CITY           SKY/WX    TMP DP  RH WIND       PRES   REMARKS
ESTEVAN        CLOUDY    66  46  48 NW20      29.85R
KINDERSLEY     CLOUDY    50  43  76 VRB2      30.02R
LLOYDMINSTER   MOCLDY    43  37  81 N2        30.04R
PRINCE ALBERT  CLOUDY    48  46  93 CALM      29.99S
REGINA         LGT RAIN  54  45  71 N14       29.94S
YORKTON        MOCLDY    59  48  67 N13G18    29.89R
N. BATTLEFORD  PTCLDY    46  43  87 W3        30.05R



USA.gov is the U.S. government's official web portal to all federal, state and local government web resources and services.